Regional Weather Roundup
Issued by NWS

Home | Current Version | Previous Version | Text Only | Print | Product List | Glossary On
Versions: 1 2 3 4 5 6 7 8 9 10 11 12 13 14 15 16 17 18 19 20 21 22 23 24 25 26 27 28 29 30 31 32 33 34 35 36 37 38 39 40 41 42 43 44 45 46 47 48 49 50
000
ASUS43 KLMK 250610
RWRKY
KENTUCKY REGIONAL WEATHER ROUNDUP
NATIONAL WEATHER SERVICE LOUISVILLE KY
200 AM EDT MON MAY 25 2015

NOTE "FAIR" INDICATES FEW OR NO CLOUDS BELOW 12,000 FEET
WITH NO SIGNIFICANT WEATHER AND/OR OBSTRUCTIONS TO VISIBILITY.

KYZ001>023-026-027-061>063-070>075-250700-
WESTERN AND SOUTH CENTRAL KENTUCKY

CITY           SKY/WX    TMP DP  RH WIND       PRES   REMARKS
PADUCAH        LGT RAIN  71  66  84 S14G23    30.00F
HENDERSON      MOCLDY    72  64  78 S14       30.02F
OWENSBORO      MOCLDY    74  66  75 SW17      30.08R
HOPKINSVILLE   MOCLDY    70  67  91 SE9       30.06F
BOWLING GREEN  CLOUDY    75  61  61 S9        30.10F
GLASGOW        CLOUDY    74  57  56 S12G17    30.11F
$$

KYZ024-025-028>034-038-045-046-053-250700-
NORTH CENTRAL KENTUCKY

CITY           SKY/WX    TMP DP  RH WIND       PRES   REMARKS
LOUISVILLE/SDF CLOUDY    77  58  51 S17G25    30.08F
LOUISVILLE/LOU CLOUDY    75  58  55 S8        30.09F
FORT KNOX      CLOUDY    74  60  62 S10       30.08F
$$

KYZ035>037-039>044-047>052-055>060-089>105-250700-
NORTHEAST KENTUCKY

CITY           SKY/WX    TMP DP  RH WIND       PRES   REMARKS
LEXINGTON      MOCLDY    70  55  59 S10       30.15F
COVINGTON      MOCLDY    70  54  56 S10       30.12F
FRANKFORT      MOCLDY    71  55  56 S8        30.12F
$$

KYZ054-064>069-076>088-106>120-250700-
SOUTHEAST KENTUCKY

CITY           SKY/WX    TMP DP  RH WIND       PRES   REMARKS
JACKSON        PTCLDY    66  51  58 CALM      30.21F
LONDON         PTCLDY    66  51  58 SE5       30.20F
SOMERSET       MOCLDY    64  54  68 CALM      30.19F
MIDDLESBORO    PTCLDY    58  56  92 CALM      30.23F
MONTICELLO     PTCLDY    74  56  53 S9G20     30.19F
$$



USA.gov is the U.S. government's official web portal to all federal, state and local government web resources and services.